Regional Weather Roundup
Issued by NWS Grand Forks, ND

Home | Current Version | Previous Version | Text Only | Print | Product List | Glossary Off
Versions: 1 2 3 4 5 6 7 8 9 10 11 12 13 14 15 16 17 18 19 20 21 22 23 24 25 26 27 28 29 30 31 32 33 34 35 36 37 38 39 40 41 42 43 44 45 46 47 48 49 50

000
ASUS43 KFGF 300831
RWRFGF
PRAIRIE TO PINES  WEATHER ROUNDUP
NATIONAL WEATHER SERVICE EASTERN NORTH DAKOTA/GRAND FORKS ND
300 AM CDT TUE SEP 30 2014

 **SATELLITE DATA USED TO AUGMENT SKY COVER AT AUTOMATED STATIONS**
 *****  WEATHER ACROSS EASTERN NORTH DAKOTA  *****

CITY           SKY/WX    TMP DP  RH WIND       PRES   REMARKS
GRAND FORKS    CLEAR     44  42  93 SE9       30.03F
GRAND FRKS AFB CLEAR     43  43  99 S9        30.03F
GRAND FRKS NWS   N/A     41 N/A N/A SE9         N/A
DEVILS LAKE    MOCLDY    48  41  76 SE16G23   29.95F
FARGO          CLEAR     46  43  89 SE7       30.02S
WAHPETON ARPT  SUNNY     43  39  87 SE10      30.03F
$$

 ***** WEATHER ACROSS CENTRAL AND WESTERN NORTH DAKOTA  *****

CITY           SKY/WX    TMP DP  RH WIND       PRES   REMARKS
BISMARCK       CLOUDY    54  50  86 E15       29.87F
MINOT          CLOUDY    51  46  83 SE13      29.87F
JAMESTOWN      CLOUDY    48  45  89 SE14      29.94F
MINOT AFB      CLOUDY    51  49  92 SE12      29.87F
GARRISON         N/A     52  50  93 SE12      29.85F
WILLISTON      CLOUDY    53  49  86 SE9       29.81F
DICKINSON      LGT RAIN  51  50  96 SE13      29.79F
HETTINGER      LGT RAIN  51  50  96 E16       29.79F FOG
$$

 *****  OTHER AIRPORT OBSERVATIONS IN OUR AREA  *****

CITY           SKY/WX    TMP DP  RH WIND       PRES   REMARKS
WALHALLA       FAIR      41  41 100 S6        30.01F
GRAFTON AIRPOR FAIR      41  41 100 SE9       30.02F
VALLEY CITY AR PTSUNNY   46  46 100 SE14      29.97F
CANDO          CLOUDY    46  46 100 SE8       29.97S
CAVALIER APRT  FAIR      43  41  93 SE6       30.01F
GWINNER        CLOUDY    48  46  93 SE17G23   29.98F
SHEYENNE NWR     N/A     46  44  92 SE13      29.95
ROLLA          CLOUDY    45  45 100 S9        29.96F
 ***** THE ABOVE OBSERVATIONS ARE NON NWS ARE NOT QUALITY
       CONTROLLED AND MAY MIS-REPORT RAIN FOR SNOW...
$$

  *****  WEATHER ACROSS NORTHERN MINNESOTA  *****

CITY           SKY/WX    TMP DP  RH WIND       PRES   REMARKS
FLAG ISLAND    CLOUDY    46  43  87 SE12      30.09F
WARROAD        MOCLDY    43  37  81 SE7       30.10F
ROSEAU         CLOUDY    43  37  81 SE8       30.08F
HALLOCK        PTCLDY    45  43  93 SE8       30.03F
THF RVR FALLS  CLEAR     41  39  93 E7        30.05F
BAUDETTE       CLOUDY    42  40  92 VRB5      30.12S
WASKISH        CLOUDY    43  43 100 CALM      30.10F
CROOKSTON      CLEAR     43  39  87 E5        30.04F
STEPHEN NDAWN    N/A     43  39  87 SE6         N/A
GREENBUSH NDAW   N/A     43  43 100 SE8         N/A
$$
  *****  WEATHER ACROSS CENTRAL AND WEST MINNESOTA  *****

CITY           SKY/WX    TMP DP  RH WIND       PRES   REMARKS
FOSSTON        CLEAR     41  39  93 SE6       30.05F
BEMIDJI        CLOUDY    44  42  91 SE10      30.08F
PARK RAPIDS    CLOUDY    43  40  89 SE12      30.08F
ELBOW LAKE     CLOUDY    43  41  94 SE15G21   30.04F
WADENA         CLOUDY    43  39  87 E12G17    30.07F
DETROIT LAKES  CLOUDY    43  41  93 SE18      30.04F
MOORHEAD       NOT AVBL
FERGUS FALLS   PTCLDY    43  37  81 SE9       30.05S
MORRIS MN      CLEAR     45  43  93 SE12      30.03F
STAPLES        CLOUDY    43  39  87 SE7       30.09F
$$
  *****  WEATHER ELSEWHERE ACROSS MINNESOTA  *****

CITY           SKY/WX    TMP DP  RH WIND       PRES   REMARKS
DULUTH         CLOUDY    43  38  82 SE8       30.15S
INTRNTL FALLS  CLOUDY    42  39  89 SE3       30.14F
ELY            CLOUDY    41  37  87 CALM      30.15S
CLOQUET        CLOUDY    43  37  81 E8        30.14F
WHEATON        CLEAR     41  39  93 E10       30.03F
BRAINERD       CLOUDY    41  38  89 VRB3      30.13S
HIBBING        CLOUDY    42  39  89 SE8       30.15F
ALEXANDRIA     CLOUDY    42  40  92 E13G21    30.08F
SAINT CLOUD    CLOUDY    44  39  82 E8        30.11S
MINNEAPOLIS    MOCLDY    43  38  82 E10       30.11S
$$

  *****  WEATHER ACROSS SOUTH DAKOTA  *****

CITY           SKY/WX    TMP DP  RH WIND       PRES   REMARKS
SIOUX FALLS    PTCLDY    53  49  86 E14       29.95F
BROOKINGS      NOT AVBL
WATERTOWN      CLOUDY    49  45  86 SE10      29.96F
HURON          MOCLDY    54  49  83 SE15      29.88F
SISSETON         N/A     47  45  93 SE13      29.99F
ABERDEEN       CLOUDY    53  48  83 E7        29.92F
MITCHELL       MOCLDY    56  52  86 SE16      29.89F
PIERRE         CLOUDY    60  56  86 SE22G32   29.74F
MOBRIDGE       MOCLDY    56  51  84 E21G30    29.79F
RAPID CITY     LGT RAIN  54  53  97 N14       29.67F
$$

  *****  SOME WEATHER IN NEARBY STATES *****

CITY           SKY/WX    TMP DP  RH WIND       PRES   REMARKS
GLASGOW MT     CLOUDY    50  47  89 SE12      29.72S
GREAT FALLS MT CLOUDY    56  44  64 SW14      29.70R
CHEYENNE WY    CLOUDY    47  41  80 W14       29.80F
SCOTTSBLUFF NE RAIN      50  49  96 W20G32    29.69R FOG
OMAHA NE       MOCLDY    64  59  83 E7        29.94F
DES MOINES IA  PTCLDY    60  56  86 E7        30.00S
DAVENPORT IA   NOT AVBL
CHICAGO IL     CLOUDY    52  46  80 N15       30.04R
EAU CLAIRE WI  CLOUDY    43  37  79 E8        30.13S
LA CROSSE WI   CLOUDY    48  42  80 E7        30.11S
$$

  *****  SOME NATIONAL WEATHER *****

CITY           SKY/WX    TMP DP  RH WIND       PRES   REMARKS
LA GUARDIA NY  CLOUDY    70  58  65 S5        29.92S
RALEIGH NC     FOG       62  60  93 CALM      29.93F VSB 1/4
ATLANTA GA     CLOUDY    67  64  90 E7        29.94F
NEW ORLEANS LA CLEAR     74  71  91 CALM      29.87S
OKLAHOMA CITY  PTCLDY    60  57  89 SE6       29.93R
ALBUQUERQUE NM CLEAR     56  35  45 W7        30.05S
SALT LAKE CITY CLOUDY    52  47  83 S7        29.99S
LOS ANGELES CA CLEAR     66  63  90 CALM      29.87F
BOISE ID       CLOUDY    53  50  89 SE5       29.93S
SEATTLE WA     CLOUDY    55  52  88 S5        30.01R
$$

*** WEATHER ACROSS MANITOBA...SASKATCHEWAN AND ONTARIO ***
                ***ONTARIO***

CITY           SKY/WX    TMP DP  RH WIND       PRES   REMARKS
GERALDTON      CLEAR    N/A N/A N/A CALM        N/A  FOG
THUNDER BAY    PTCLDY    36  36 100 CALM      30.19F
SIOUX LOOKOUT  CLOUDY    37  37 100 S5        30.15F
TORONTO        MOCLDY    61  57  88 N3        29.86S
BIG TROUT LK   CLEAR     39  36  87 W10       30.09S
PICKLE LAKE    NOT AVBL
DRYDEN         CLOUDY    39  37  93 S6        30.14F
KENORA         CLOUDY    41  41 100 SE6       30.12F
$$
                *** MANITOBA***

CITY           SKY/WX    TMP DP  RH WIND       PRES   REMARKS
BRANDON        CLOUDY    48  45  87 SE8       29.96F
DAUPHIN        CLEAR     36  36 100 N5        29.96F
ISLAND LAKE    CLOUDY    45  39  81 S9        30.04F
PILOT MOUND      N/A     43  43 100 SE12        N/A
THE PAS        CLEAR     37  37 100 SE8       29.88F
THOMPSON       CLEAR     32  32 100 S2        29.92F
WINNIPEG       PTCLDY    45  43  93 SE12      30.04F
LYNN LAKE      CLEAR     41  39  93 SE5       29.80F
CHURCHILL      CLOUDY    39  39 100 E13       29.94S FOG
GILLAM         CLEAR     36  36 100 SW7       29.96S
$$
                ***SASKATCHEWAN***

CITY           SKY/WX    TMP DP  RH WIND       PRES   REMARKS
ESTEVAN        LGT RAIN  50  48  93 SE12      29.84F
KINDERSLEY     NOT AVBL
LLOYDMINSTER   CLOUDY    50  45  81 SE9       29.58F
PRINCE ALBERT  CLOUDY    52  45  76 S9        29.73F
REGINA         CLOUDY    48  46  93 SE16      29.78F
YORKTON        CLOUDY    45  43  93 SE10      29.86  FOG
N. BATTLEFORD  CLOUDY    52  45  76 SE12      29.66R
LA RONGE       CLOUDY    50  41  71 S13       29.71F
SASKATOON      CLOUDY    52  45  76 S13G26    29.72F
SWIFT CURRENT  CLOUDY    50  48  93 S16G23    29.63F
$$
NOTE: THESE ARE AUTOMATED STATIONS WITH LIMITED QUALITY CONTROL
      "FAIR" INDICATES FEW OR NO CLOUDS BELOW 12,000 FEET WITH NO
      SIGNIFICANT WEATHER AND/OR OBSTRUCTIONS TO VISIBILITY.
      SKY/WX - SKY CONDITION AND SIGNIFICANT WEATHER.
      TMP - AIR TEMPERATURE.    DP   - DEWPOINT TEMPERATURE.
      RH  - RELATIVE HUMIDITY.  PRES - PRESSURE.
      HX  - HEAT INDEX.         WCI  - WIND CHILL INDEX.
$


USA.gov is the U.S. government's official web portal to all federal, state and local government web resources and services.